CST,Max TemperatureF,Mean TemperatureF,Min TemperatureF,Max Dew PointF,MeanDew PointF,Min DewpointF,Max Humidity, Mean Humidity, Min Humidity, Max Sea Level PressureIn, Mean Sea Level PressureIn, Min Sea Level PressureIn, Max VisibilityMiles, Mean VisibilityMiles, Min VisibilityMiles, Max Wind SpeedMPH, Mean Wind SpeedMPH, Max Gust SpeedMPH,PrecipitationIn, CloudCover, Events, WindDirDegrees
2012-11-1,66,50,35,41,36,30,86,60,35,30.07,29.99,29.91,10,9,3,10,3,,0.00,1,,206
2012-11-2,66,52,41,42,37,31,89,57,29,30.06,29.99,29.91,10,10,8,10,4,,0.00,0,,48
2012-11-3,73,58,43,49,41,37,80,59,38,30.14,30.01,29.94,10,9,2,17,5,24,0.00,0,,12
2012-11-4,57,47,37,38,36,34,89,72,44,30.25,30.19,30.15,10,8,3,8,4,,0.00,1,,29
2012-11-5,48,44,41,43,39,36,90,79,64,30.16,30.09,30.02,10,8,3,12,4,,0.20,7,Rain,56
2012-11-6,53,48,44,42,41,39,90,78,62,30.08,30.03,29.96,10,8,3,13,5,16,0.00,7,Rain,291
2012-11-7,57,46,34,42,36,30,89,67,44,30.20,30.08,29.97,10,10,8,17,7,23,0.00,4,,326
2012-11-8,57,44,30,40,35,27,89,71,47,30.29,30.20,30.14,10,10,7,9,2,,0.00,0,,176
2012-11-9,72,54,37,55,45,34,93,68,51,30.16,30.10,30.03,10,10,7,23,6,28,0.00,0,,195
2012-11-10,73,60,46,57,50,42,86,67,49,30.14,30.08,30.03,10,10,10,23,8,30,0.00,1,,180
2012-11-11,72,62,51,63,54,50,94,80,59,30.07,29.98,29.87,10,7,2,22,11,38,0.82,8,Rain,211
2012-11-12,52,44,33,50,31,20,94,64,28,30.49,30.29,30.06,10,9,2,20,9,30,0.31,3,Rain,306
2012-11-13,51,40,30,32,28,24,89,65,35,30.56,30.49,30.44,10,10,10,8,2,,0.00,0,,50
2012-11-14,50,41,32,31,28,26,89,69,39,30.49,30.42,30.36,10,10,6,10,2,,0.00,0,,25
2012-11-15,54,41,28,34,29,23,85,68,34,30.42,30.37,30.33,10,10,10,7,2,,0.00,0,,3
2012-11-16,57,42,28,35,29,23,89,64,26,30.47,30.42,30.39,10,10,8,7,2,,0.00,0,,46
2012-11-17,60,44,28,36,31,25,89,69,35,30.51,30.44,30.40,10,10,8,10,2,,0.00,0,,26
2012-11-18,61,44,28,39,33,26,89,70,36,30.42,30.37,30.32,10,10,8,6,1,,0.00,0,,138
2012-11-19,62,50,37,45,40,34,93,68,44,30.32,30.25,30.15,10,9,5,10,2,,0.00,4,Snow,210
2012-11-20,73,59,45,48,44,41,90,63,33,30.18,30.12,30.04,10,10,4,9,4,,0.00,1,,278
2012-11-21,66,52,39,50,43,37,100,80,52,30.29,30.22,30.18,8,5,1,7,2,,0.00,0,,236
2012-11-22,64,50,37,50,43,36,97,83,54,30.19,30.14,30.05,10,4,0,17,2,24,0.00,2,Fog-Rain,206
2012-11-23,57,46,34,52,34,19,83,56,40,30.36,30.24,30.09,10,10,8,21,10,29,0.01,2,Rain,312
2012-11-24,44,35,26,25,20,17,75,57,34,30.40,30.29,30.14,10,10,10,7,4,,0.00,0,,228
2012-11-25,57,42,28,36,31,24,86,67,45,30.12,30.03,29.96,10,10,10,15,4,20,0.00,0,,195
2012-11-26,45,39,33,41,36,30,89,81,68,30.31,30.12,30.03,10,8,1,20,4,29,0.45,6,Rain-Thunderstorm,21
2012-11-27,46,37,27,30,25,22,89,67,42,30.44,30.38,30.32,10,10,8,15,8,,0.00,0,,1
2012-11-28,50,38,25,30,26,21,89,70,38,30.49,30.42,30.36,10,9,7,4,0,,0.00,0,,55
2012-11-29,57,42,28,34,31,24,92,65,40,30.37,30.28,30.21,10,9,6,13,3,,0.00,0,,183
2012-11-30,60,46,32,48,39,28,93,74,53,30.23,30.18,30.13,10,10,7,13,4,,0.00,3,,199